Newport News, VA

9:31 AM EDT on August 29, 2016 (GMT -0400)
Newport News-Williamsburg International

Weather History for KPHF - November, 2012

Change the Weather History Date:

Friday, November 2, 2012

  Actual Average Record
Temperature  
Mean Temperature 50 °F -  
Max Temperature 61 °F 70 °F 84 °F (1968)
Min Temperature 39 °F 50 °F 31 °F (1975)
Degree Days  
Heating Degree Days 16    
Moisture  
Dew Point 32 °F    
Average Humidity 54    
Maximum Humidity 82    
Minimum Humidity 31    
Precipitation  
Precipitation 0.00 in - - ()
Sea Level Pressure  
Sea Level Pressure 29.83 in    
Wind  
Wind Speed 8 mph (West)    
Max Wind Speed 16 mph    
Max Gust Speed 30 mph    
Visibility 10 miles    
Events      
Averages and records for this station are not official NWS values.
T = Trace of Precipitation, MM = Missing Value Source: NWS Daily Summary

Daily Weather History Graph

Daily Weather History Graph

Search for Another Location

Airport or City:

Trip Planner

Search our weather history database for the weather conditions in past years. The results will help you decide how hot, cold, wet, or windy it might be!

Date:

Astronomy

Nov. 02, 2012 Rise Set
Actual Time 7:31 AM EDT 6:06 PM EDT
Civil Twilight 7:04 AM EDT 6:33 PM EDT
Nautical Twilight 6:33 AM EDT 7:04 PM EDT
Astronomical Twilight 6:03 AM EDT 7:34 PM EDT
Moon 8:54 PM EDT (11/2) 10:47 AM EDT (11/2)
Length of Visible Light 11h 29m
Length of Day
10h 35m
Waning Gibbous, 87% of the Moon is Illuminated
Nov 2
Waning Gibbous
Nov 6
Last Quarter
Nov 13
New
Nov 20
First Quarter
Nov 28
Full

Hourly Weather History & Observations

Time (EDT) Temp. Windchill Dew Point Humidity Pressure Visibility Wind Dir Wind Speed Gust Speed Precip Events Conditions
12:54 AM 50.0 °F - 37.0 °F 61% 29.79 in 10.0 mi West 5.8 mph - N/A   Overcast
1:54 AM 50.0 °F - 36.0 °F 59% 29.79 in 10.0 mi NW 5.8 mph - N/A   Overcast
2:54 AM 48.0 °F - 37.0 °F 66% 29.80 in 10.0 mi WSW 6.9 mph - N/A   Overcast
3:54 AM 45.0 °F 41.2 °F 34.0 °F 65% 29.80 in 10.0 mi West 6.9 mph - N/A   Clear
4:54 AM 42.1 °F 39.2 °F 33.1 °F 70% 29.80 in 10.0 mi WSW 4.6 mph - N/A   Scattered Clouds
5:54 AM 43.0 °F 38.8 °F 33.1 °F 68% 29.79 in 10.0 mi West 6.9 mph - N/A   Clear
6:54 AM 43.0 °F 37.2 °F 32.0 °F 65% 29.82 in 10.0 mi West 10.4 mph - N/A   Clear
7:54 AM 42.1 °F 37.7 °F 30.9 °F 65% 29.83 in 10.0 mi WSW 6.9 mph - N/A   Clear
8:54 AM 46.0 °F 42.5 °F 30.9 °F 56% 29.84 in 10.0 mi West 6.9 mph - N/A   Clear
9:54 AM 50.0 °F - 30.9 °F 48% 29.83 in 10.0 mi West 9.2 mph - N/A   Clear
10:54 AM 54.0 °F - 30.9 °F 41% 29.82 in 10.0 mi West 12.7 mph 20.7 mph N/A   Clear
11:54 AM 57.0 °F - 30.9 °F 37% 29.80 in 10.0 mi WNW 11.5 mph - N/A   Mostly Cloudy
12:54 PM 57.9 °F - 28.0 °F 32% 29.78 in 10.0 mi West 15.0 mph 29.9 mph N/A   Overcast
1:54 PM 60.1 °F - 28.9 °F 31% 29.77 in 10.0 mi WNW 16.1 mph 27.6 mph N/A   Overcast
2:54 PM 59.0 °F - 30.0 °F 33% 29.77 in 10.0 mi West 16.1 mph 21.9 mph N/A   Partly Cloudy
3:54 PM 57.9 °F - 28.9 °F 33% 29.78 in 10.0 mi WNW 11.5 mph 23.0 mph N/A   Scattered Clouds
4:54 PM 57.0 °F - 27.0 °F 32% 29.80 in 10.0 mi WNW 12.7 mph 25.3 mph N/A   Clear
5:54 PM 55.0 °F - 27.0 °F 34% 29.83 in 10.0 mi WNW 10.4 mph - N/A   Clear
6:54 PM 51.1 °F - 30.0 °F 44% 29.86 in 10.0 mi WNW 5.8 mph - N/A   Clear
7:54 PM 48.9 °F - 32.0 °F 52% 29.88 in 10.0 mi WNW 3.5 mph - N/A   Clear
8:54 PM 45.0 °F 43.5 °F 33.1 °F 63% 29.91 in 10.0 mi North 3.5 mph - N/A   Clear
9:54 PM 39.9 °F - 34.0 °F 79% 29.93 in 10.0 mi Calm Calm - N/A   Clear
10:54 PM 39.9 °F - 34.0 °F 79% 29.94 in 10.0 mi Calm Calm - N/A   Clear
11:54 PM 39.0 °F 35.7 °F 34.0 °F 82% 29.95 in 10.0 mi NNW 4.6 mph - N/A   Clear